[[{"header":{"parameterUnit":"m.s-1","parameterCategory":1,"la1":30.2992,"la2":30.254,"lo1":-89.0895,"lo2":-89.0443,"dy":0.0025,"dx":0.0025,"nx":19,"ny":19,"refTime":"2026-05-03T21:00:00:Z","depth":0,"parameterNumber":2,"parameterNumberName":"U-component_of_WINDS"},"data":[0,0,0,0.2473,0.2474,0.2521,0.2521,0.2587,0.2588,0,0,0,0,0,0,0,0,0,0,0,0.2461,0.2461,0.2473,0.2475,0.2521,0.2521,0.2587,0.2588,0,0,0,0,0,0,0,0,0,0,0,0.2461,0.2461,0.2462,0.2475,0.2521,0.2521,0.2587,0.255,0,0,0,0,0,0,0,0,0,0,0.2505,0.2493,0.2461,0.2462,0.2475,0.252,0.2521,0.2549,0.2553,0.2569,0,0.2581,0,0.2585,0.2593,0.2593,0,0,0,0.2474,0.249,0.2501,0.2462,0.2475,0.252,0.25,0.2551,0.2556,0.2575,0.2582,0.2584,0.2587,0.2593,0.2594,0.2685,0.2685,0,0,0.2472,0.247,0.2498,0.2504,0.2494,0.2498,0.2501,0.2554,0.2562,0.2582,0.2586,0.2588,0.2594,0.2594,0.2685,0.2685,0,0,0,0.2465,0.2469,0.2478,0.2502,0.2509,0.25,0.2503,0.256,0.2563,0.2586,0.2588,0.2594,0.2595,0.2684,0.2685,0.2707,0,0,0,0.2463,0.2465,0.2477,0.2477,0.2508,0.2534,0.2508,0.256,0.2566,0.2588,0.2594,0.2596,0.2683,0.2684,0.2705,0.2718,0,0,0,0.2458,0.2464,0.2471,0.2477,0.2497,0.2534,0.254,0.2561,0.2567,0.2593,0.2596,0.2683,0.2684,0.2704,0.2715,0.2744,0,0,0,0.2452,0.2488,0.2471,0.2513,0.2496,0.2546,0.2539,0.2577,0.2601,0.2594,0.2684,0.2685,0.2703,0.2714,0.2742,0.2769,0.278,0,0,0.2497,0.2493,0.2518,0.2505,0.2557,0.2539,0.2596,0.262,0.2624,0.2665,0.2668,0.2706,0.2715,0.2744,0.2835,0.2843,0,0,0,0.2533,0.2551,0.2565,0.2588,0.2607,0.2627,0.2642,0.2652,0.2688,0.2644,0.2723,0.2728,0.2745,0.2759,0.2766,0.2782,0.269,0.269,0.269,0.2595,0.2599,0.2642,0.2653,0.2676,0.2693,0.2714,0.2731,0.2727,0.2746,0.2759,0.2813,0.2828,0.2834,0.2851,0.2772,0.2772,0.2772,0.2772,0.2664,0.2692,0.2688,0.2728,0.2734,0.2769,0.279,0.2787,0.2824,0.2803,0.2818,0.2797,0.2842,0.2858,0.2774,0.2773,0.2773,0.2773,0.2773,0.2707,0.2721,0.2732,0.277,0.2799,0.2809,0.2846,0.2849,0.2853,0.2867,0.2884,0.2884,0.2887,0.2875,0.2875,0.2875,0.2875,0.2876,0.2876,0.2747,0.2759,0.2788,0.2814,0.2832,0.2857,0.2878,0.2897,0.292,0.292,0.292,0.2918,0.2845,0.2828,0.2879,0.2878,0.2878,0.2877,0.2877,0.2819,0.2804,0.2848,0.2866,0.29,0.2932,0.2937,0.2976,0.2993,0.3012,0.3007,0.2951,0.2948,0.2943,0.2929,0.3003,0.3003,0.3003,0.3003,0.2857,0.2855,0.2904,0.2933,0.2963,0.2973,0.3029,0.3049,0.3067,0.3079,0.3068,0.305,0.3044,0.3045,0.3037,0.3025,0.3121,0.3121,0.3121,0.2903,0.2905,0.2949,0.2965,0.2993,0.3019,0.3073,0.3112,0.3129,0.3126,0.3089,0.3084,0.3054,0.3044,0.304,0.3027,0.3004,0,0]},{"header":{"parameterUnit":"m.s-1","parameterCategory":1,"la1":30.2992,"la2":30.254,"lo1":-89.0895,"lo2":-89.0443,"dy":0.0025,"dx":0.0025,"nx":19,"ny":19,"refTime":"2026-05-03T21:00:00:Z","depth":0,"parameterNumber":3,"parameterNumberName":"V-component_of_WINDS"},"data":[0,0,0,-0.81,-0.8098,-0.7992,-0.7992,-0.7859,-0.7858,0,0,0,0,0,0,0,0,0,0,0,-0.8134,-0.8133,-0.81,-0.8098,-0.7992,-0.7992,-0.7859,-0.7858,0,0,0,0,0,0,0,0,0,0,0,-0.8134,-0.8133,-0.8132,-0.8097,-0.7992,-0.7992,-0.7859,-0.7938,0,0,0,0,0,0,0,0,0,0,-0.804,-0.8074,-0.8133,-0.8132,-0.8097,-0.7993,-0.7992,-0.7942,-0.7933,-0.7908,0,-0.7887,0,-0.787,-0.7849,-0.7848,0,0,0,-0.8096,-0.8082,-0.805,-0.8132,-0.8096,-0.7993,-0.8039,-0.7937,-0.7927,-0.7896,-0.7885,-0.788,-0.7868,-0.7848,-0.7847,-0.7706,-0.7706,0,0,-0.8101,-0.8116,-0.8057,-0.8044,-0.8062,-0.8043,-0.8036,-0.7931,-0.792,-0.7885,-0.7877,-0.7866,-0.7847,-0.7846,-0.7707,-0.7706,0,0,0,-0.8119,-0.8121,-0.8092,-0.805,-0.8031,-0.804,-0.8032,-0.7924,-0.7914,-0.7875,-0.7864,-0.7846,-0.7845,-0.7708,-0.7707,-0.769,0,0,0,-0.8123,-0.8131,-0.8095,-0.8103,-0.8033,-0.7976,-0.8028,-0.7921,-0.7909,-0.7865,-0.7846,-0.7844,-0.7708,-0.7707,-0.7692,-0.768,0,0,0,-0.814,-0.8133,-0.8119,-0.8104,-0.8059,-0.7978,-0.7961,-0.7918,-0.7902,-0.7848,-0.7843,-0.7709,-0.7707,-0.7694,-0.7682,-0.7643,0,0,0,-0.8162,-0.8109,-0.8119,-0.8054,-0.806,-0.7969,-0.7962,-0.7894,-0.7846,-0.7846,-0.7708,-0.7707,-0.7694,-0.7684,-0.7645,-0.7611,-0.76,0,0,-0.8103,-0.8103,-0.8063,-0.8068,-0.7979,-0.7984,-0.7892,-0.7836,-0.7818,-0.7744,-0.774,-0.7691,-0.7683,-0.7644,-0.7533,-0.7524,0,0,0,-0.8049,-0.802,-0.7994,-0.7948,-0.7902,-0.786,-0.7816,-0.7794,-0.773,-0.7783,-0.7668,-0.7662,-0.7639,-0.7622,-0.7614,-0.7591,-0.77,-0.7701,-0.7701,-0.7987,-0.7964,-0.7895,-0.7858,-0.7814,-0.7766,-0.7727,-0.7689,-0.7683,-0.7655,-0.7632,-0.7568,-0.7548,-0.7542,-0.7518,-0.7615,-0.7615,-0.7615,-0.7615,-0.7895,-0.7849,-0.7836,-0.7765,-0.774,-0.768,-0.763,-0.7625,-0.7564,-0.7584,-0.7563,-0.7584,-0.7533,-0.751,-0.7614,-0.7614,-0.7614,-0.7614,-0.7614,-0.785,-0.7823,-0.7796,-0.7723,-0.767,-0.7635,-0.7574,-0.7555,-0.7537,-0.7516,-0.7486,-0.7486,-0.7481,-0.7503,-0.7503,-0.7503,-0.7503,-0.7503,-0.7502,-0.7812,-0.7782,-0.7733,-0.7676,-0.7641,-0.7592,-0.754,-0.7505,-0.746,-0.7451,-0.7451,-0.7443,-0.7533,-0.7554,-0.7499,-0.7499,-0.75,-0.75,-0.75,-0.7723,-0.7739,-0.7664,-0.7628,-0.7556,-0.7501,-0.7476,-0.7405,-0.7373,-0.7343,-0.7339,-0.741,-0.7408,-0.7414,-0.7431,-0.7347,-0.7347,-0.7347,-0.7347,-0.7683,-0.7679,-0.7594,-0.7538,-0.7481,-0.7449,-0.736,-0.7317,-0.7275,-0.7253,-0.7262,-0.7284,-0.7292,-0.7285,-0.7294,-0.7309,-0.7196,-0.7196,-0.7196,-0.7624,-0.7613,-0.7543,-0.7501,-0.7441,-0.7389,-0.7304,-0.7237,-0.7194,-0.7189,-0.7234,-0.724,-0.7275,-0.7288,-0.7284,-0.7298,-0.7326,0,0]}]]